Weather History for Hurlburt Field, FL

Change the Weather History Date:

Friday, January 4, 2013

  Actual Average Record
Temperature  
Mean Temperature 45 °F -  
Max Temperature 56 °F 59 °F 75 °F (1997)
Min Temperature 34 °F 41 °F 21 °F (2002)
Degree Days  
Heating Degree Days 20    
Moisture  
Dew Point 37 °F    
Average Humidity 72    
Maximum Humidity 92    
Minimum Humidity 48    
Precipitation  
Precipitation 0.00 in - - ()
Sea Level Pressure  
Sea Level Pressure 30.36 in    
Wind  
Wind Speed 9 mph (North)    
Max Wind Speed 12 mph    
Max Gust Speed -    
Visibility 10 miles    
Events Rain    
Averages and records for this station are not official NWS values.
T = Trace of Precipitation, MM = Missing Value Source: NWS Daily Summary

Daily Weather History Graph

Daily Weather History Graph

Search for Another Location

Airport:

Trip Planner

Search our weather history database for the weather conditions in past years. The results will help you decide how hot, cold, wet, or windy it might be!

Date:

Astronomy

Jan. 04, 2013 Rise Set
Actual Time 6:44 AM CST 4:59 PM CST
Civil Twilight 6:17 AM CST 5:25 PM CST
Nautical Twilight 5:48 AM CST 5:55 PM CST
Astronomical Twilight 5:18 AM CST 6:25 PM CST
Moon No Moon Rise 10:58 AM CST (1/4)
Length of Visible Light 11h 08m
Length of Day
10h 15m
Waning Gibbous, 55% of the Moon is Illuminated
Jan 4
Waning Gibbous
Jan 4
Last Quarter
Jan 11
New
Jan 18
First Quarter
Jan 26
Full

Hourly Weather History & Observations

Time (CST) Temp. Windchill Dew Point Humidity Pressure Visibility Wind Dir Wind Speed Gust Speed Precip Events Conditions
12:55 AM 37.4 °F 30.3 °F 35.1 °F 91% 30.32 in 10.0 mi North 10.4 mph - N/A   Overcast
1:55 AM 38.3 °F 31.4 °F 34.7 °F 87% 30.33 in 10.0 mi North 10.4 mph - N/A   Overcast
2:55 AM 38.5 °F 32.7 °F 33.8 °F 83% 30.32 in 10.0 mi NNE 8.1 mph - N/A   Mostly Cloudy
3:55 AM 37.4 °F 29.8 °F 33.6 °F 86% 30.31 in 10.0 mi North 11.5 mph - N/A   Mostly Cloudy
4:55 AM 36.9 °F 30.1 °F 33.1 °F 86% 30.32 in 10.0 mi North 9.2 mph - N/A   Mostly Cloudy
5:55 AM 35.2 °F 29.5 °F 32.5 °F 90% 30.35 in 10.0 mi NNE 6.9 mph - N/A   Clear
6:55 AM 34.9 °F 28.3 °F 32.4 °F 91% 30.37 in 10.0 mi North 8.1 mph - N/A   Clear
7:55 AM 39.0 °F 32.8 °F 33.8 °F 82% 30.38 in 10.0 mi NNE 9.2 mph - N/A   Clear
8:55 AM 42.8 °F 37.5 °F 34.3 °F 72% 30.39 in 10.0 mi NNE 9.2 mph - N/A   Clear
9:55 AM 47.1 °F - 35.6 °F 64% 30.40 in 10.0 mi NNE 10.4 mph - N/A   Clear
10:20 AM 48.2 °F - 35.6 °F 62% 30.39 in 10.0 mi NNE 5.8 mph - N/A   Light Drizzle
10:29 AM 48.2 °F - 35.6 °F 62% 30.40 in 10.0 mi North 9.2 mph - N/A   Clear
10:55 AM 50.5 °F - 36.7 °F 59% 30.40 in 10.0 mi North 6.9 mph - 0.00 in   Clear
11:31 AM 51.8 °F - 37.4 °F 58% 30.38 in 10.0 mi North 8.1 mph - N/A   Light Drizzle
11:39 AM 51.8 °F - 37.4 °F 58% 30.38 in 10.0 mi Variable 4.6 mph - N/A   Partly Cloudy
11:55 AM 53.1 °F - 37.4 °F 55% 30.37 in 10.0 mi North 8.1 mph - 0.00 in   Clear
12:43 PM 53.6 °F - 37.4 °F 54% 30.34 in 10.0 mi North 9.2 mph - N/A Rain Light Rain
12:44 PM 53.6 °F - 37.4 °F 54% 30.34 in 10.0 mi North 9.2 mph - N/A   Clear
12:55 PM 54.3 °F - 37.8 °F 54% 30.34 in 10.0 mi North 8.1 mph - 0.00 in   Clear
1:55 PM 55.4 °F - 37.0 °F 50% 30.32 in 10.0 mi North 11.5 mph - N/A   Clear
2:55 PM 56.3 °F - 36.9 °F 48% 30.31 in 10.0 mi NNE 10.4 mph - N/A   Clear
3:55 PM 54.9 °F - 37.2 °F 51% 30.33 in 10.0 mi North 8.1 mph - N/A   Clear
4:55 PM 51.1 °F - 39.9 °F 66% 30.34 in 10.0 mi North 3.5 mph - N/A   Clear
5:55 PM 46.2 °F 44.1 °F 41.7 °F 84% 30.35 in 10.0 mi North 4.6 mph - N/A   Clear
6:55 PM 46.2 °F 44.1 °F 41.9 °F 85% 30.37 in 10.0 mi North 4.6 mph - N/A   Clear
7:55 PM 44.4 °F 42.9 °F 42.3 °F 92% 30.39 in 10.0 mi NNW 3.5 mph - N/A   Clear
8:55 PM 42.8 °F 38.6 °F 39.9 °F 90% 30.37 in 10.0 mi North 6.9 mph - N/A   Clear
9:55 PM 42.3 °F 36.8 °F 39.0 °F 88% 30.36 in 10.0 mi North 9.2 mph - N/A   Clear
10:55 PM 43.9 °F 39.9 °F 36.7 °F 76% 30.36 in 10.0 mi North 6.9 mph - N/A   Clear
11:55 PM 43.3 °F 39.2 °F 36.1 °F 76% 30.35 in 10.0 mi North 6.9 mph - N/A   Clear